EST,Max TemperatureF,Mean TemperatureF,Min TemperatureF,Max Dew PointF,MeanDew PointF,Min DewpointF,Max Humidity, Mean Humidity, Min Humidity, Max Sea Level PressureIn, Mean Sea Level PressureIn, Min Sea Level PressureIn, Max VisibilityMiles, Mean VisibilityMiles, Min VisibilityMiles, Max Wind SpeedMPH, Mean Wind SpeedMPH, Max Gust SpeedMPH,PrecipitationIn, CloudCover, Events, WindDirDegrees
2013-1-1,48,44,40,45,38,27,93,71,49,30.05,29.98,29.91,10,9,3,12,4,14,0.12,7,Rain,248
2013-1-2,49,43,36,43,36,28,89,71,53,30.17,30.05,29.94,10,10,7,12,4,16,0.06,6,Rain,20
2013-1-3,41,34,26,31,28,23,92,73,54,30.25,30.20,30.16,10,9,5,7,2,8,0.00,5,,353
2013-1-4,50,36,22,24,20,16,84,57,29,30.30,30.25,30.19,10,10,10,18,8,26,0.00,0,,262
2013-1-5,52,38,24,29,21,18,75,52,28,30.39,30.30,30.22,10,10,10,13,3,16,T,1,,230
2013-1-6,55,46,36,36,32,27,92,69,46,30.20,30.14,30.04,10,10,9,14,5,17,0.04,7,Rain,246
2013-1-7,52,40,28,30,27,24,85,62,39,30.43,30.35,30.18,10,10,10,13,3,16,0.00,1,,322
2013-1-8,53,38,23,36,29,21,92,71,50,30.48,30.41,30.38,10,9,6,7,1,12,0.00,4,,208
2013-1-9,68,50,32,50,41,31,89,73,56,30.44,30.38,30.33,10,9,3,22,5,26,0.00,2,,242
2013-1-10,61,51,40,46,38,31,93,65,37,30.54,30.46,30.42,10,10,5,10,3,14,0.00,0,,51
2013-1-11,46,43,40,43,39,33,100,83,65,30.41,30.28,30.14,10,4,0,8,3,10,0.17,8,Fog-Rain,50
2013-1-12,70,57,44,59,51,43,100,85,70,30.17,30.12,30.09,10,3,0,8,2,9,0.00,5,Fog,220
2013-1-13,76,63,49,59,53,46,100,77,53,30.10,30.07,30.01,10,4,0,22,6,26,0.00,1,Fog,208
2013-1-14,64,56,47,61,57,44,97,88,78,30.22,30.11,30.04,10,6,2,20,5,23,1.46,7,Rain,231
2013-1-15,47,44,40,43,40,37,92,89,86,30.28,30.20,30.09,10,4,2,17,7,22,0.97,8,Rain,49
2013-1-16,49,44,39,46,40,37,93,90,86,30.10,30.02,29.95,10,7,2,9,3,,0.63,8,Rain,336
2013-1-17,49,41,33,47,39,30,96,91,86,30.17,30.03,29.95,10,4,2,24,7,30,2.55,8,Rain-Snow,21
2013-1-18,44,35,26,32,26,19,96,68,39,30.53,30.39,30.17,10,10,10,14,4,17,0.00,0,,285
2013-1-19,53,38,23,28,25,21,92,64,35,30.47,30.33,30.12,10,10,10,14,6,17,0.00,0,,210
2013-1-20,61,46,30,32,27,24,78,52,25,30.09,30.04,29.97,10,10,10,24,8,32,0.00,0,,245
2013-1-21,59,42,25,31,23,11,92,59,26,30.08,29.98,29.85,10,9,5,22,7,30,0.00,0,,257
2013-1-22,40,31,22,7,0,-4,37,29,20,30.28,30.17,29.97,10,10,10,20,9,28,0.00,0,,317
2013-1-23,39,31,22,18,6,-3,63,43,22,30.34,30.23,30.04,10,10,10,20,7,25,0.00,2,,304
2013-1-24,35,27,18,21,8,-1,75,50,24,30.52,30.29,29.96,10,10,10,29,8,36,0.00,2,,360
2013-1-25,27,22,16,23,15,4,88,67,46,30.52,30.28,30.09,10,9,3,13,5,16,0.13,6,Rain-Snow,210
2013-1-26,39,29,19,27,23,18,92,73,54,30.40,30.22,30.08,10,9,6,8,4,10,0.00,0,,299
2013-1-27,41,31,20,25,21,16,84,67,50,30.60,30.51,30.41,10,10,7,8,2,10,0.00,2,,154
2013-1-28,53,44,34,43,35,25,86,66,46,30.47,30.32,30.19,10,9,4,18,8,22,0.01,6,Rain,217
2013-1-29,73,57,40,54,45,37,93,67,41,30.20,30.13,30.01,10,6,1,16,5,24,T,3,Rain,219
2013-1-30,73,67,60,63,59,55,87,77,66,29.98,29.67,29.37,10,9,1,30,13,39,0.79,7,Rain,200
2013-1-31,59,45,30,52,29,16,86,57,28,29.97,29.73,29.39,10,10,7,30,14,38,0.23,4,Rain,254